AST,Max TemperatureF,Mean TemperatureF,Min TemperatureF,Max Dew PointF,MeanDew PointF,Min DewpointF,Max Humidity, Mean Humidity, Min Humidity, Max Sea Level PressureIn, Mean Sea Level PressureIn, Min Sea Level PressureIn, Max VisibilityMiles, Mean VisibilityMiles, Min VisibilityMiles, Max Wind SpeedMPH, Mean Wind SpeedMPH, Max Gust SpeedMPH,PrecipitationIn, CloudCover, Events, WindDirDegrees
2012-11-1,85,82,79,73,71,70,79,69,54,29.96,29.91,29.86,17,9,6,12,9,,0.00,2,,77
2012-11-2,85,81,77,74,71,70,83,70,60,29.96,29.92,29.89,17,9,6,14,9,,0.01,3,,87
2012-11-3,85,82,79,73,71,68,74,69,58,29.96,29.93,29.89,17,9,6,14,10,,0.00,2,,95
2012-11-4,85,82,78,75,72,68,83,72,58,29.98,29.93,29.89,17,9,6,13,9,,0.00,2,Rain,94
2012-11-5,86,80,75,75,73,72,94,76,60,29.95,29.91,29.86,19,9,6,23,11,,0.04,3,Rain,113
2012-11-6,85,80,75,75,73,72,84,74,61,29.95,29.91,29.89,19,9,6,15,11,,0.03,3,,115
2012-11-7,86,80,74,74,73,72,94,74,56,29.95,29.90,29.86,19,9,6,14,10,,0.03,3,Rain,117
2012-11-8,86,82,79,75,73,71,79,72,60,29.95,29.91,29.89,19,9,6,15,11,,0.00,3,,115
2012-11-9,86,82,78,75,74,72,89,77,66,29.92,29.88,29.83,19,9,6,14,9,23,0.04,3,Rain,99
2012-11-10,86,80,75,77,75,73,90,84,66,29.93,29.88,29.83,19,9,6,20,7,,0.20,3,Rain,94
2012-11-11,85,79,73,77,74,73,89,79,69,29.95,29.88,29.83,19,9,6,17,9,,0.02,2,Rain,110
2012-11-12,82,78,74,74,72,70,89,77,66,29.95,29.89,29.86,17,9,6,18,12,,0.16,3,Rain,108
2012-11-13,84,79,74,75,74,72,94,79,68,29.95,29.90,29.86,17,9,6,16,11,,0.00,3,Rain,106
2012-11-14,86,82,78,75,73,70,79,73,60,29.95,29.90,29.86,17,9,6,17,14,,0.00,2,,110
2012-11-15,85,82,78,75,73,70,83,75,63,29.93,29.88,29.86,19,9,6,14,10,,0.00,3,Rain,89
2012-11-16,85,81,77,75,74,72,94,79,62,29.94,29.89,29.86,19,9,6,14,10,,0.04,3,,111
2012-11-17,85,81,77,77,74,73,89,77,60,29.98,29.93,29.86,19,9,6,14,10,,0.02,3,Rain,123
2012-11-18,85,80,76,76,75,73,94,81,69,29.98,29.94,29.92,17,9,6,16,9,,0.12,4,Rain,126
2012-11-19,84,80,75,75,72,68,94,75,57,29.96,29.92,29.86,17,9,6,15,9,,0.01,2,Rain,121
2012-11-20,86,79,72,70,69,66,88,70,47,29.90,29.85,29.80,19,9,6,13,5,,0.00,2,,158
2012-11-21,87,80,72,70,68,65,83,70,41,29.92,29.86,29.83,19,9,6,12,3,,0.00,2,,174
2012-11-22,88,79,70,74,71,69,94,78,47,29.94,29.89,29.86,19,9,6,12,3,,0.00,1,,156
2012-11-23,88,81,74,75,73,72,94,79,54,29.95,29.90,29.86,19,9,6,15,4,,0.00,3,Rain,175
2012-11-24,86,80,73,75,74,72,94,83,62,29.99,29.92,29.89,19,9,6,7,2,,0.20,3,Rain,101
2012-11-25,85,80,75,73,72,72,89,75,59,30.04,29.97,29.92,19,9,6,14,8,,0.00,2,,108
2012-11-26,84,80,77,77,73,72,94,78,60,30.04,30.01,29.95,19,9,2,17,11,29,0.24,4,Rain,87
2012-11-27,85,80,76,75,73,71,83,73,62,30.04,29.99,29.95,19,9,6,16,15,,0.00,3,,105
2012-11-28,85,80,76,74,72,71,83,74,60,29.99,29.94,29.89,19,9,6,17,13,,0.04,3,Rain,94
2012-11-29,86,82,77,73,71,69,83,70,54,29.98,29.93,29.89,19,9,6,10,7,,0.00,2,,78
2012-11-30,85,79,73,73,70,68,94,78,61,29.95,29.91,29.89,19,9,6,12,6,22,0.59,5,Rain,114